Ada, OK

6:29 PM CST on February 23, 2017 (GMT -0600)
Ada Municipal

Weather History for KADH - April, 2014

Change the Weather History Date:

Friday, April 4, 2014

  Actual Average Record
Temperature  
Mean Temperature 48 °F -  
Max Temperature 62 °F 70 °F 91 °F (1927)
Min Temperature 35 °F 43 °F 29 °F (1920)
Degree Days  
Heating Degree Days 16    
Moisture  
Dew Point 31 °F    
Average Humidity 56    
Maximum Humidity 93    
Minimum Humidity 27    
Precipitation  
Precipitation 0.00 in - - ()
Sea Level Pressure  
Sea Level Pressure 30.10 in    
Wind  
Wind Speed 11 mph (North)    
Max Wind Speed 18 mph    
Max Gust Speed 30 mph    
Visibility 10 miles    
Events      
Averages and records for this station are not official NWS values.
T = Trace of Precipitation, MM = Missing Value Source: NWS Daily Summary

Daily Weather History Graph

Daily Weather History Graph

Search for Another Location

Airport or City:

Trip Planner

Search our weather history database for the weather conditions in past years. The results will help you decide how hot, cold, wet, or windy it might be!

Date:

Astronomy

Apr. 04, 2014 Rise Set
Actual Time 7:09 AM CDT 7:50 PM CDT
Civil Twilight 6:43 AM CDT 8:15 PM CDT
Nautical Twilight 6:13 AM CDT 8:45 PM CDT
Astronomical Twilight 5:43 AM CDT 9:16 PM CDT
Moon 10:35 AM CDT (4/4) 12:01 AM CDT (4/4)
Length of Visible Light 13h 31m
Length of Day
12h 40m
Waxing Crescent, 25% of the Moon is Illuminated
Apr 4
Waxing Crescent
Apr 7
First Quarter
Apr 15
Full
Apr 22
Last Quarter
Apr 29
New

Hourly Weather History & Observations

Time (CDT) Temp. Windchill Dew Point Humidity Pressure Visibility Wind Dir Wind Speed Gust Speed Precip Events Conditions
12:15 AM 48.2 °F - 37.4 °F 66% 29.95 in 10.0 mi NNW 17.3 mph 26.5 mph N/A   Clear
12:35 AM 46.4 °F 40.4 °F 37.4 °F 71% 29.96 in 10.0 mi NNW 13.8 mph 25.3 mph N/A   Clear
12:55 AM 46.4 °F 39.5 °F 35.6 °F 66% 29.97 in 10.0 mi NNW 17.3 mph 24.2 mph N/A   Clear
1:15 AM 44.6 °F 38.1 °F 35.6 °F 71% 29.98 in 10.0 mi NNW 13.8 mph 24.2 mph N/A   Clear
1:35 AM 44.6 °F 38.8 °F 35.6 °F 71% 29.99 in 10.0 mi NW 11.5 mph 18.4 mph N/A   Clear
1:55 AM 44.6 °F 40.2 °F 35.6 °F 71% 30.00 in 10.0 mi NNW 8.1 mph 20.7 mph N/A   Clear
2:15 AM 42.8 °F 36.6 °F 35.6 °F 76% 30.01 in 10.0 mi NW 11.5 mph 23.0 mph N/A   Clear
2:35 AM 42.8 °F 35.8 °F 35.6 °F 76% 30.02 in 10.0 mi NNW 13.8 mph 21.9 mph N/A   Clear
2:55 AM 42.8 °F 37.5 °F 33.8 °F 70% 30.02 in 10.0 mi NNW 9.2 mph 20.7 mph N/A   Clear
3:15 AM 41.0 °F 33.1 °F 33.8 °F 76% 30.03 in 10.0 mi NNW 15.0 mph 23.0 mph N/A   Clear
3:35 AM 41.0 °F 34.7 °F 33.8 °F 76% 30.03 in 10.0 mi NNW 10.4 mph 21.9 mph N/A   Clear
3:55 AM 41.0 °F 35.8 °F 33.8 °F 76% 30.04 in 10.0 mi NNW 8.1 mph - N/A   Clear
4:15 AM 41.0 °F 33.9 °F 33.8 °F 76% 30.04 in 10.0 mi NNW 12.7 mph 20.7 mph N/A   Clear
4:35 AM 39.2 °F 32.0 °F 33.8 °F 81% 30.04 in 10.0 mi NNW 11.5 mph 23.0 mph N/A   Clear
4:55 AM 39.2 °F 32.5 °F 33.8 °F 81% 30.05 in 10.0 mi NNW 10.4 mph 17.3 mph N/A   Clear
5:15 AM 37.4 °F 30.3 °F 33.8 °F 87% 30.06 in 10.0 mi NNW 10.4 mph - N/A   Clear
5:35 AM 37.4 °F 30.3 °F 33.8 °F 87% 30.06 in 10.0 mi NNW 10.4 mph 19.6 mph N/A   Clear
5:55 AM 37.4 °F 30.3 °F 33.8 °F 87% 30.07 in 10.0 mi NNW 10.4 mph 18.4 mph N/A   Clear
6:15 AM 37.4 °F 30.3 °F 33.8 °F 87% 30.07 in 10.0 mi NNW 10.4 mph - N/A   Clear
6:35 AM 37.4 °F 31.4 °F 33.8 °F 87% 30.09 in 10.0 mi NNW 8.1 mph - N/A   Clear
6:55 AM 37.4 °F 32.1 °F 33.8 °F 87% 30.10 in 10.0 mi NNW 6.9 mph - N/A   Clear
7:15 AM 35.6 °F 30.7 °F 33.8 °F 93% 30.10 in 10.0 mi NNW 5.8 mph - N/A   Clear
7:35 AM 37.4 °F 34.9 °F 33.8 °F 87% 30.11 in 10.0 mi NW 3.5 mph - N/A   Clear
7:55 AM 37.4 °F 34.9 °F 33.8 °F 87% 30.12 in 10.0 mi NW 3.5 mph - N/A   Clear
8:15 AM 39.2 °F 35.9 °F 33.8 °F 81% 30.13 in 10.0 mi NW 4.6 mph - N/A   Clear
8:35 AM 41.0 °F 34.7 °F 35.6 °F 81% 30.14 in 10.0 mi NNW 10.4 mph - N/A   Clear
8:55 AM 41.0 °F 33.9 °F 35.6 °F 81% 30.14 in 10.0 mi North 12.7 mph 16.1 mph N/A   Clear
9:15 AM 42.8 °F 35.8 °F 33.8 °F 70% 30.13 in 10.0 mi North 13.8 mph 20.7 mph N/A   Clear
9:35 AM 44.6 °F 38.1 °F 33.8 °F 66% 30.14 in 10.0 mi NNW 13.8 mph 26.5 mph N/A   Clear
9:55 AM 44.6 °F 38.4 °F 33.8 °F 66% 30.15 in 10.0 mi NNW 12.7 mph 23.0 mph N/A   Clear
10:15 AM 46.4 °F 41.1 °F 33.8 °F 62% 30.17 in 10.0 mi North 11.5 mph 19.6 mph N/A   Clear
10:35 AM 46.4 °F 41.1 °F 32.0 °F 57% 30.17 in 10.0 mi North 11.5 mph 20.7 mph N/A   Clear
10:55 AM 48.2 °F - 33.8 °F 58% 30.18 in 10.0 mi North 13.8 mph 18.4 mph N/A   Clear
11:15 AM 50.0 °F - 32.0 °F 50% 30.18 in 10.0 mi NNW 10.4 mph 23.0 mph N/A   Clear
11:35 AM 51.8 °F - 32.0 °F 47% 30.19 in 10.0 mi NNW 11.5 mph 19.6 mph N/A   Clear
11:55 AM 51.8 °F - 32.0 °F 47% 30.18 in 10.0 mi North 15.0 mph 23.0 mph N/A   Clear
12:15 PM 53.6 °F - 32.0 °F 44% 30.17 in 10.0 mi North 18.4 mph 24.2 mph N/A   Clear
12:35 PM 53.6 °F - 32.0 °F 44% 30.17 in 10.0 mi NNW 15.0 mph 21.9 mph N/A   Clear
1:15 PM 55.4 °F - 32.0 °F 41% 30.17 in 10.0 mi North 12.7 mph 17.3 mph N/A   Clear
1:35 PM 57.2 °F - 30.2 °F 36% 30.16 in 10.0 mi NNW 13.8 mph 23.0 mph N/A   Clear
1:55 PM 59.0 °F - 28.4 °F 31% 30.16 in 10.0 mi North 13.8 mph 23.0 mph N/A   Clear
2:15 PM 59.0 °F - 28.4 °F 31% 30.15 in 10.0 mi North 13.8 mph 23.0 mph N/A   Clear
2:35 PM 59.0 °F - 28.4 °F 31% 30.14 in 10.0 mi North 13.8 mph 24.2 mph N/A   Clear
3:15 PM 60.8 °F - 30.2 °F 31% 30.13 in 10.0 mi North 13.8 mph 25.3 mph N/A   Clear
3:55 PM 60.8 °F - 28.4 °F 29% 30.12 in 10.0 mi North 10.4 mph 23.0 mph N/A   Clear
4:15 PM 60.8 °F - 28.4 °F 29% 30.11 in 10.0 mi NNW 11.5 mph 17.3 mph N/A   Clear
4:35 PM 60.8 °F - 28.4 °F 29% 30.10 in 10.0 mi North 18.4 mph 29.9 mph N/A   Clear
4:55 PM 62.6 °F - 28.4 °F 27% 30.10 in 10.0 mi North 11.5 mph 16.1 mph N/A   Clear
5:15 PM 60.8 °F - 28.4 °F 29% 30.10 in 10.0 mi North 10.4 mph 18.4 mph N/A   Clear
5:35 PM 60.8 °F - 28.4 °F 29% 30.10 in 10.0 mi NNE 12.7 mph 17.3 mph N/A   Clear
5:55 PM 60.8 °F - 28.4 °F 29% 30.09 in 10.0 mi NNW 5.8 mph 12.7 mph N/A   Clear
6:15 PM 60.8 °F - 28.4 °F 29% 30.09 in 10.0 mi North 9.2 mph - N/A   Clear
6:35 PM 59.0 °F - 26.6 °F 29% 30.09 in 10.0 mi North 15.0 mph - N/A   Clear
6:55 PM 59.0 °F - 26.6 °F 29% 30.09 in 10.0 mi North 9.2 mph - N/A   Clear
7:15 PM 55.4 °F - 26.6 °F 33% 30.09 in 10.0 mi NNE 8.1 mph - N/A   Clear
7:35 PM 55.4 °F - 26.6 °F 33% 30.09 in 10.0 mi North 6.9 mph - N/A   Clear
7:55 PM 53.6 °F - 26.6 °F 35% 30.10 in 10.0 mi NNE 4.6 mph - N/A   Clear
8:15 PM 51.8 °F - 26.6 °F 38% 30.10 in 10.0 mi NNE 3.5 mph - N/A   Clear
8:35 PM 51.8 °F - 26.6 °F 38% 30.11 in 10.0 mi NNE 3.5 mph - N/A   Clear
8:55 PM 50.0 °F - 26.6 °F 40% 30.12 in 10.0 mi NNE 3.5 mph - N/A   Clear
9:15 PM 50.0 °F - 26.6 °F 40% 30.12 in 10.0 mi Calm Calm - N/A   Clear
9:35 PM 50.0 °F - 26.6 °F 40% 30.13 in 10.0 mi NNE 4.6 mph - N/A   Clear
9:55 PM 48.2 °F - 26.6 °F 43% 30.14 in 10.0 mi NE 3.5 mph - N/A   Clear
10:15 PM 48.2 °F - 26.6 °F 43% 30.14 in 10.0 mi NNE 5.8 mph - N/A   Clear
10:35 PM 48.2 °F - 26.6 °F 43% 30.14 in 10.0 mi NNE 4.6 mph - N/A   Clear
10:55 PM 46.4 °F 43.5 °F 26.6 °F 46% 30.15 in 10.0 mi NNE 5.8 mph - N/A   Clear
11:15 PM 48.2 °F - 26.6 °F 43% 30.16 in 10.0 mi North 5.8 mph - N/A   Clear
11:35 PM 44.6 °F 43.1 °F 28.4 °F 53% 30.16 in 10.0 mi NE 3.5 mph - N/A   Clear
11:55 PM 44.6 °F 43.1 °F 26.6 °F 49% 30.16 in 10.0 mi NE 3.5 mph - N/A   Clear